Flight Track Log - Related Links

Times and Time Zones

All times are in EDT time to prevent confusion due to time zone crossing. See the N2317S flight status page for this flight to view local times or setup timezone preferences in your user account.

Time Position Orientation Groundspeed Altitude Reporting Facility
EDT Latitude Longitude Course Direction KTS MPH feet Rate Location/Type
Thu 01:43:17 PM 41.7500 -72.6489 53° Northeast 90 104 400  Level Boston Center
Thu 01:44:06 PM 41.7625 -72.6267 53° Northeast 107 123 1,000 641 Climbing Boston Center
Thu 01:45:00 PM 41.7875 -72.6044 34° Northeast 118 136 1,500 661 Climbing Boston Center
Thu 01:45:55 PM 41.8147 -72.5822 31° Northeast 121 139 2,200 835 Climbing Boston Center
Thu 01:46:55 PM 41.8417 -72.5628 28° Northeast 115 132 3,100 893 Climbing Boston Center
Thu 01:47:56 PM 41.8711 -72.5461 23° Northeast 111 128 4,000 934 Climbing Boston Center
Thu 01:48:57 PM 41.8981 -72.5267 28° Northeast 107 123 5,000 939 Climbing Boston Center
Thu 01:49:51 PM 41.9253 -72.5069 28° Northeast 113 130 5,800 763 Climbing Boston Center
Thu 01:50:55 PM 41.9544 -72.4819 33° Northeast 125 144 6,500 738 Climbing Boston Center
Thu 01:51:53 PM 41.9878 -72.4569 29° Northeast 135 155 7,300 814 Climbing Boston Center
Thu 01:52:53 PM 42.0231 -72.4344 25° Northeast 140 161 8,100 709 Climbing Boston Center
Thu 01:54:00 PM 42.0606 -72.4064 29° Northeast 145 167 8,800 422 Climbing Boston Center
Thu 01:55:01 PM 42.1044 -72.3786 25° Northeast 157 181 9,000 99 Climbing Boston Center
Thu 01:56:01 PM 42.1503 -72.3422 30° Northeast 187 215 9,000  Level Boston Center
Thu 01:57:02 PM 42.1961 -72.3083 29° Northeast 191 220 9,000  Level Boston Center
Thu 01:58:40 PM 42.2753 -72.2494 29° Northeast 218 251 9,000  Level Boston Center
Thu 01:59:40 PM 42.3169 -72.2183 29° Northeast 204 235 9,000  Level Boston Center
Thu 02:00:40 PM 42.3708 -72.1789 28° Northeast 199 229 9,000  Level Boston Center
Thu 02:01:40 PM 42.4147 -72.1506 25° Northeast 199 229 9,000 -200 Level Boston Center
Thu 02:02:40 PM 42.4667 -72.1108 29° Northeast 194 223 8,600 -400 Descending Boston Center
Thu 02:03:40 PM 42.5042 -72.0825 29° Northeast 187 215 8,200 -450 Descending Boston Center
Thu 02:04:40 PM 42.5519 -72.0511 26° Northeast 173 199 7,700 -450 Descending Boston Center
Thu 02:05:40 PM 42.5892 -72.0228 29° Northeast 173 199 7,300 -400 Descending Boston Center
Thu 02:06:40 PM 42.6350 -71.9914 27° Northeast 173 199 6,900 -400 Descending Boston Center
Thu 02:07:40 PM 42.6725 -71.9658 27° Northeast 168 193 6,500 -450 Descending Boston Center
Thu 02:08:40 PM 42.7161 -71.9372 26° Northeast 162 186 6,000 -500 Descending Boston Center
Thu 02:09:40 PM 42.7514 -71.9086 31° Northeast 157 181 5,500 -500 Descending Boston Center
Thu 02:10:40 PM 42.7928 -71.8800 27° Northeast 157 181 5,000 -250 Descending Boston Center
Thu 02:11:40 PM 42.8242 -71.8542 31° Northeast 152 175 5,000  Level Boston Center
Thu 02:12:40 PM 42.8592 -71.8197 36° Northeast 146 168 5,000  Level Boston Center
Thu 02:13:40 PM 42.8883 -71.7939 33° Northeast 141 162 5,000 -300 Level Boston Center
Thu 02:14:40 PM 42.9278 -71.7567 35° Northeast 152 175 4,400 -500 Descending Boston Center
Thu 02:15:40 PM 42.9608 -71.7250 35° Northeast 157 181 4,000 -350 Descending Boston Center
Thu 02:16:40 PM 42.9939 -71.6822 43° Northeast 145 167 3,700 -300 Descending Boston Center
Thu 02:17:40 PM 43.0228 -71.6506 39° Northeast 145 167 3,400 -300 Descending Boston Center
Thu 02:20:00 PM 43.0741 -71.5963 38° Northeast  Level FlightAware Approximate
Thu 02:27:00 PM 43.2000 -71.5000 20° North  Level FlightAware Approximate
Thu 02:28:00 PM 43.2027 -71.5023 20° North  Level Estimated
Thu 02:29:00 PM 43.2000 -71.5000 20° North  Level FlightAware Approximate

Login

Don't have an account? Register now (free) for customized features, flight alerts, and more!